Regional Weather Roundup
Issued by NWS

Home | Current Version | Previous Version | Graphics & Text | Print | Product List | Glossary On
Versions: 1 2 3 4 5 6 7 8 9 10 11 12 13 14 15 16 17 18 19 20 21 22 23 24 25 26 27 28 29 30 31 32 33 34 35 36 37 38 39 40 41 42 43 44 45 46 47 48 49 50
000
ASUS43 KIND 211909
RWRIN

WEATHER ROUNDUP FOR INDIANA
NATIONAL WEATHER SERVICE INDIANAPOLIS IN
300 PM EDT THU AUG 21 2014

NOTE: "FAIR" INDICATES FEW OR NO CLOUDS BELOW 12,000 FEET WITH NO
SIGNIFICANT WEATHER AND/OR OBSTRUCTIONS TO VISIBILITY.

* - STATION DOES NOT REPORT WEATHER SUCH AS PRECIPITATION OR FOG.

+ - STATION NOT QUALITY CONTROLLED BY THE NATIONAL WEATHER SERVICE.
    USE DATA WITH CAUTION...ESPECIALLY DEWPOINT AND RELATIVE
    HUMIDITY OBSERVATIONS.

INZ001>003-010>013-019-020-212000-
NORTHWEST INDIANA

CITY           SKY/WX    TMP DP  RH WIND       PRES   REMARKS
GARY /AIRPORT/ CLOUDY    79  73  83 SW7       29.98R
KNOX *+        CLOUDY    77  71  80 S7        29.98S
LA PORTE +     CLOUDY    75  73  93 CALM      30.01R
MICHIGAN CITY+ CLOUDY    75  73  94 CALM      30.00R
MONTICELLO +   CLOUDY    82  75  77 S8        29.98S
RENSSELAER +   PTSUNNY   82  75  78 S8        29.98S
VALPARAISO     CLOUDY    78  72  81 S6        29.99R

$$

LMZ046-743>745-212000-
SOUTHERN LAKE MICHIGAN

STATION/POSITION TIME  TEMP WIND        PRES
                       AIR  DIR/SP/G
                 (UTC) (F)  (DEG/KT/KT) (MB)
BURNS HARBOR     1900   77  190/  4/  7   N/A
MICHIGAN CITY    1900   76  170/  8/ 10   N/A

$$

INZ004-005-014>016-021>024-212000-
NORTH CENTRAL INDIANA

CITY           SKY/WX    TMP DP  RH WIND       PRES   REMARKS
GOSHEN         CLOUDY    78  71  79 SW7       30.01S
LOGANSPORT +   CLOUDY    81  72  74 S10       30.01S
PERU/GRISSOM   PTSUNNY   78  78  99 S14       30.01S
ROCHESTER +    CLOUDY    79  72  78 S7        30.01S
SOUTH BEND     CLOUDY    77  70  79 SW9       30.01R
WARSAW +       CLOUDY    73  72  94 S3        30.01S

$$

INZ006>009-017-018-025>027-212000-
NORTHEAST INDIANA

CITY           SKY/WX    TMP DP  RH WIND       PRES   REMARKS
ANGOLA *+      CLOUDY    77  72  83 SW10      30.01R
AUBURN +       CLOUDY    73  68  83 SW6       30.02S
FORT WAYNE     LGT RAIN  74  70  87 SW8       30.01S
HUNTINGTON +   CLOUDY    74  70  86 S12G17    30.01S

$$

INZ028-029-035-036-043>045-051>053-212000-
WEST CENTRAL INDIANA

CITY           SKY/WX    TMP DP  RH WIND       PRES   REMARKS
GREENCASTLE +  PTSUNNY   82  75  78 S6        30.03F
LAFAYETTE      PTSUNNY   84  73  69 SW7       29.98F
TERRE HAUTE      N/A    N/A N/A N/A MISG      30.01F

$$

INZ030>032-037>040-046>048-054>057-064-065-212000-
CENTRAL INDIANA

CITY           SKY/WX    TMP DP  RH WIND       PRES   REMARKS
ANDERSON       CLOUDY    75  72  88 SE10      30.05
CP ATTERBURY + PTSUNNY   86  72  62 SW3       30.04F
FRANKFORT +    PTSUNNY   83  74  75 S6        30.02S
INDIANAPOLIS   PTSUNNY   84  72  67 SW12      30.02F
-EAGLE CREEK   PTSUNNY   85  70  60 VRB5      30.01F
KOKOMO *+      CLOUDY    79  72  78 S13       30.01F
MARION +       CLOUDY    77  71  81 S14       30.03S
MT COMFORT *+  PTSUNNY   79  75  89 S6        30.04F
SHELBYVILLE    PTSUNNY   84  74  71 SW7       30.03F
ZIONSVILLE +   PTSUNNY   83  72  69 S8        30.03F

$$

INZ033-034-041-042-049-050-058-059-212000-
EAST CENTRAL INDIANA

CITY           SKY/WX    TMP DP  RH WIND       PRES   REMARKS
MUNCIE         CLOUDY    79  70  74 S14       30.03F

$$

INZ060-061-067>069-081>083-085>088-212000-
SOUTHWEST INDIANA

CITY           SKY/WX    TMP DP  RH WIND       PRES   REMARKS
EVANSVILLE     PTSUNNY   90  73  57 SW9       30.04F HX  98
WASHINGTON +   MOSUNNY   87  78  74 SW8       30.02F HX  99

$$

INZ062-063-066-070>080-084-089>092-212000-
SOUTH CENTRAL AND SOUTHEAST INDIANA

CITY           SKY/WX    TMP DP  RH WIND       PRES   REMARKS
BEDFORD +      PTSUNNY   86  70  58 W8        30.05
BLOOMINGTON    PTSUNNY   86  75  69 W6        30.04F HX  95
SEYMOUR +      PTSUNNY   84  57  39 SW5       30.04

$$



USA.gov is the U.S. government's official web portal to all federal, state and local government web resources and services.